Home   Weather   Glennallen   Past weeks

Flag for USA Past Weather in Glennallen, Alaska, USA — Yesterday and Last 2 Weeks

Now
52 °F

Passing clouds.


Feels Like: 47 °F
Forecast: 29 / 55 °F
Wind: 14 mph from South

Location: Gulkana Airport

Current Time: Apr 25, 2017 at 6:25:09 pm

Latest Report: Apr 25, 2017 at 5:53 pm


Visibility: 10 mi

Pressure: 29.58 "Hg

Humidity: 35%

Dew Point: 25 °F

Location of GlennallenLocation

Past Weather in Glennallen — Graph

°F

Glennallen Temperature Yesterday

Maximum temperature yesterday: 57 °F (at 2:53 pm)
Minimum temperature yesterday: 25 °F (at 5:53 am)
Average temperature yesterday: 42 °F

High & Low Weather Summary for the Past Weeks

 TemperatureHumidityPressure
High57 °F (Apr 23, 3:53 pm)88% (Apr 12, 6:53 am)30.43 "Hg (Apr 12, 6:53 am)
Low16 °F (Apr 21, 5:53 am)17% (Apr 23, 2:53 pm)29.59 "Hg (Apr 25, 4:53 pm)
Average37 °F48%30.04 "Hg
* Reported Apr 10 4:53 pm — Apr 25 4:53 pm, Glennallen, Weather by CustomWeather, © 2017

Note: Actual official high and low records may vary slightly from our data, if they occured in-between our weather recording intervals... More about our weather records

Advertising

Glennallen Weather History for the Previous 24 Hours

Scroll right to see more
 ConditionsComfort  
Time TempWeatherWind HumidityBarometerVisibility
4:53 pm
Tue, Apr 25
53 °FSunny.14 mph32%29.59 "Hg10 mi
3:53 pm55 °FPartly sunny.12 mph33%29.59 "Hg10 mi
2:53 pm53 °FOvercast.10 mph35%29.59 "Hg10 mi
1:53 pm53 °FScattered clouds.15 mph35%29.59 "Hg10 mi
12:53 pm52 °FPartly sunny.13 mph43%29.60 "Hg10 mi
11:53 am52 °FSunny.13 mph43%29.61 "Hg10 mi
10:53 am50 °FSunny.17 mph48%29.61 "Hg10 mi
9:53 am46 °FScattered clouds.14 mph61%29.62 "Hg10 mi
8:53 am42 °FPassing clouds.7 mph71%29.62 "Hg10 mi
7:53 am40 °FScattered clouds.8 mph77%29.62 "Hg10 mi
6:53 am36 °FPartly sunny.7 mph85%29.63 "Hg10 mi
5:53 am35 °FPartly sunny.8 mph85%29.63 "Hg10 mi
4:53 am36 °FOvercast.6 mph82%29.62 "Hg10 mi
3:53 am35 °FOvercast.7 mph82%29.62 "Hg10 mi
2:53 am38 °FPassing clouds.6 mph76%29.62 "Hg10 mi
1:53 am40 °FOvercast.5 mph70%29.61 "Hg10 mi
12:53 am43 °FPassing clouds.10 mph62%29.61 "Hg10 mi
11:53 pm
Mon, Apr 24
43 °FPassing clouds.8 mph62%29.62 "Hg10 mi
10:53 pm44 °FPartly cloudy.10 mph63%29.62 "Hg10 mi
9:53 pm46 °FOvercast.14 mph58%29.63 "Hg10 mi
8:53 pm47 °FMostly cloudy.16 mph56%29.63 "Hg10 mi
7:53 pm49 °FOvercast.16 mph48%29.63 "Hg10 mi
6:53 pm50 °FLight rain. Partly sunny.17 mph46%29.64 "Hg10 mi
Weather by CustomWeather, © 2017

See weather overviewHow to use our weather pages